Location: Bailleul
(50.3375°N, 2.8513°E)
Time: 04:08:18
(UTC+00:00)

Cosmos 1980 - Pass Details

Date: 30 October 2021
Orbit: 839 x 847 km, 71.0° (Epoch: 01 December)

Event Time Altitude Azimuth Distance (km) Brightness Sun altitude
Exits shadow 03:41:17 15° 344° (NNW) 2,135 5.7 -28.2°
Maximum altitude 03:45:41 42° 51° (NE) 1,190 4.8 -27.5°
Drops below altitude 10° 03:51:02 10° 122° (ESE) 2,465 6.7 -26.7°
Sets 03:53:36 0° 129° (SE) 3,398 7.4 -26.3°
